Weather in Duby

Russia / Oryol Oblast     52°53′41″N   37°26′05″E
temp.,
°C
wind,
m/s
gust,
m/s
humid.,
%
clouds,
%
prec.,
mm/h
press.,
hPa
HPBL,
m
26 june, sun
sun2600:00+17ne33865 0.0 101927
03:00+18ne348299 0.0 101986
06:00+18ne36850 0.0 1020141
09:00+22ene46695 0.0 1021403
12:00+25ene56595 0.0 10211313
15:00+26ene465681 0.0 10212217
18:00+22ne3476100 0.0 102187
21:00+20ne22780 0.1 102111
27 june, mon
mon2700:00+18nne22860 0.0 102214
03:00+17n22870 0.0 102221
06:00+19nnw22840 0.0 102364
09:00+24nw23720 0.0 1022454
12:00+27n45644 0.0 10211043
15:00+28n45595 0.0 10201645
18:00+27n347249 0.3 1020375
21:00+23nnw22805 0.7 102011
28 june, tue
tue2800:00+21wnw33855 0.7 101923
03:00+20nnw359290 0.8 101993
06:00+20ne37875 0.0 1019151
09:00+24ne46685 0.0 1019377
12:00+27ne45577 0.0 10191257
15:00+27nne34548 0.1 10191720
18:00+23ne578287 2.1 1020379
21:00+19ene359110 4.0 102172
29 june, wed
wed2900:00+17e33871 0.0 102246
03:00+14e3388100 0.0 102237
06:00+15e248473 0.0 1023102
09:00+19e336545 0.0 1023472
12:00+21ene325744 0.0 10221126
15:00+22ne225371 0.0 10221446
18:00+21ene3263100 0.0 1021986
21:00+16ene45785 0.0 102283
30 june, thu
thu3000:00+13e34750 0.0 102261
03:00+12e22740 0.0 102224
06:00+13ene23780 0.0 102368
09:00+18ene22610 0.0 1023480
12:00+21ene22500 0.0 10221217
15:00+22nne22485 0.0 10211515
18:00+22n23605 0.0 10201323
21:00+17nw22720 0.0 102011